COSMOS 565

Satellite information

Favourite Embed

Satellite Type and Status

PAYLOADIN ORBIT

Key statistics

Satellite COSMOS 565 at a glance.

Uptime

19086

Days in orbit

Revolutions

≈ 12.5

Per day

Orbit

LEO

Low Earth Orbit

Inclination

74.0

Latest

Satellite identification and parameters

Extended collection of information and parameters for COSMOS 565.

Object identification

Identified? True

Debris? False

Object name: COSMOS 565

International designator: 1973-037B

Object number (NORAD): 6676

Object ID (CCSDS): 6676

Country: COMMONWEALTH OF INDEPENDENT STATES (CIS)

Current information (Y/N): Y

RCS size: MEDIUM

Orbital parameters

Period: 115.295 minutes

Inclination: 74.0216 deg

SMA: 7846.963 km

Apoapsis: 1489.353 km

Periapsis: 1448.304 km

RAAN: 19.6121 deg

Eccentricy: 0.0026156

Argument of periapsis: 352.5562 deg

Mean anomaly: 79.1936 deg

Mean motion: 12.48965158 rev/day

Mean motion (dot): -0.00000023 rev/day2

B* drag term: -0.000049145477 1/REarth

Two-line elements (TLE)

Creation date: Sept. 8, 2025, 6:18 p.m.

Reference frame: TEME

Reference center: EARTH

Epoch: Sept. 8, 2025, 12:31 p.m. UTC

TLE line 0: 0 COSMOS 565

TLE line 1: 1 06676U 73037B 25251.52201979 -.00000023 00000-0 -49145-4 0 9999

TLE line 2: 2 06676 74.0216 19.6121 0026156 352.5562 79.1936 12.48965158382349

Live tracking on map

Real-time ground track for satellite COSMOS 565.

In-orbit conjunctions

There are no conjunctions computed for COSMOS 565, at the moment. Check back to stay up to date, as we update our databases every day.

Go to all conjunctions

Associated space launch

Military communications satellites

COSMOS 565 was lifted into orbit during the mission ‘Kosmos-3M | Strela-1M 41-48’, on board a Kosmos-3M space rocket.

The launch took place on June 8, 1973, 3:50 p.m. from 132/1 (132L).

For more information about the launch, click the button.

Launch to space Kosmos-3M | Strela-1M 41-48
Kosmos-3M | Strela-1M 41-48

Agency: N/A

Status: Launch Successful

Launch date: June 8, 1973, 3:50 p.m. UTC

Rocket: Kosmos-3M

Launch pad: 132/1 (132L)

Location: Plesetsk Cosmodrome, Russian Federation

...

Latest news about this satellite

There are no fresh news available about this satellite. Check back as we update our databases every day.


Newsletter sign-up

Weekly statistics, charts and insights to help you stay on top of the space industry.